Date String (YYYY-MM-DD hh:mm:ss) UTC,Instrument flags,Ambient pressure (hPa),Sample flow (lpm),Bypass flow (lpm),Sample temperature (°C),Ambient temperature (°C),ASC tube jacket temperature (°C),LED temperature (°C),Box temperature (°C),Sample RH (%),Span deviation,Mass concentration (μg/m³),Mass concentration (μg/m³),Mass concentration (μg/m³)
DateTimeUTC,F1_M11,P_M11,Q1_M11,Q2_M11,T1_M11,T2_M11,T3_M11,T4_M11,T5_M11,U1_M11,ZSPAN_M11,X0_M11,X2_M11,X1_M11
2022-07-14 09:00:00,,0828.3,5.00,0.00,29.7,28.5,00.0,38.4,31.6,20.8,0000.0,0006.37,0003.12,0002.44
2022-07-14 09:01:00,,0828.2,5.00,0.00,29.7,28.6,00.0,38.4,31.7,21.3,0000.0,0006.13,0003.15,0002.47
2022-07-14 09:02:00,,0828.2,5.01,0.00,29.7,28.7,00.0,38.4,31.7,21.1,0000.0,0006.19,0003.19,0002.50
2022-07-14 09:03:00,,0828.3,5.00,0.00,29.8,28.8,00.0,38.5,31.8,21.0,0000.0,0006.26,0003.21,0002.51
2022-07-14 09:04:00,,0828.3,5.00,0.00,29.8,28.8,00.0,38.5,31.8,20.6,0000.0,0006.91,0003.19,0002.51
2022-07-14 09:05:00,,0828.3,5.00,0.00,29.8,28.0,00.0,38.4,31.7,20.5,0000.0,0007.07,0003.19,0002.52
2022-07-14 09:06:00,,0828.3,5.01,0.00,29.7,27.3,00.0,38.4,31.5,20.5,0000.0,0006.88,0003.17,0002.52
2022-07-14 09:07:00,,0828.3,4.99,0.00,29.7,27.1,00.0,38.4,31.4,20.1,0000.0,0006.48,0003.16,0002.51
2022-07-14 09:08:00,,0828.3,5.00,0.00,29.6,27.1,00.0,38.4,31.3,19.8,0000.0,0006.33,0003.11,0002.47
2022-07-14 09:09:00,,0828.4,5.00,0.00,29.6,27.3,00.0,38.3,31.3,20.0,0000.0,0006.26,0003.04,0002.42
2022-07-14 09:10:00,,0828.4,5.00,0.00,29.5,27.5,00.0,38.3,31.3,20.3,0000.0,0005.68,0002.95,0002.38
2022-07-14 09:11:00,,0828.4,5.00,0.00,29.5,27.6,00.0,38.3,31.3,20.2,0000.0,0005.56,0002.90,0002.32
2022-07-14 09:12:00,,0828.5,5.00,0.00,29.5,27.8,00.0,38.3,31.4,20.3,0000.0,0005.56,0002.83,0002.27
2022-07-14 09:13:00,,0828.5,5.01,0.00,29.5,28.0,00.0,38.3,31.4,20.3,0000.0,0005.37,0002.74,0002.23
2022-07-14 09:14:00,,0828.4,4.99,0.00,29.6,28.1,00.0,38.3,31.4,20.4,0000.0,0005.28,0002.67,0002.21
2022-07-14 09:15:00,,0828.4,5.00,0.00,29.6,28.3,00.0,38.3,31.5,20.3,0000.0,0004.67,0002.63,0002.19
2022-07-14 09:16:00,,0828.4,5.00,0.00,29.6,28.4,00.0,38.4,31.5,20.6,0000.0,0004.13,0002.62,0002.18
2022-07-14 09:17:00,,0828.4,5.00,0.00,29.7,28.5,00.0,38.4,31.6,20.8,0000.0,0004.34,0002.65,0002.16
2022-07-14 09:18:00,,0828.3,5.00,0.00,29.7,28.6,00.0,38.4,31.6,20.7,0000.0,0004.53,0002.70,0002.21
2022-07-14 09:19:00,,0828.3,5.00,0.00,29.7,28.7,00.0,38.4,31.7,20.3,0000.0,0004.65,0002.77,0002.27
2022-07-14 09:20:00,,0828.4,5.00,0.00,29.8,28.8,00.0,38.4,31.7,19.7,0000.0,0004.88,0002.90,0002.33
2022-07-14 09:21:00,,0828.4,5.00,0.00,29.8,28.8,00.0,38.5,31.8,20.2,0000.0,0004.97,0002.94,0002.37
2022-07-14 09:22:00,,0828.3,4.99,0.00,29.8,28.5,00.0,38.4,31.8,20.6,0000.0,0005.33,0003.02,0002.46
2022-07-14 09:23:00,,0828.4,5.01,0.00,29.8,27.9,00.0,38.4,31.7,20.1,0000.0,0005.27,0003.10,0002.55
2022-07-14 09:24:00,,0828.4,5.00,0.00,29.8,27.7,00.0,38.4,31.6,19.8,0000.0,0005.49,0003.14,0002.62
2022-07-14 09:25:00,,0828.4,5.00,0.00,29.7,27.7,00.0,38.4,31.5,20.1,0000.0,0005.58,0003.16,0002.67
2022-07-14 09:26:00,,0828.4,5.00,0.00,29.7,27.8,00.0,38.4,31.5,20.7,0000.0,0005.59,0003.21,0002.71
2022-07-14 09:27:00,,0828.5,4.98,0.00,29.7,27.9,00.0,38.4,31.5,20.3,0000.0,0005.60,0003.24,0002.75
2022-07-14 09:28:00,,0828.5,5.00,0.00,29.7,28.0,00.0,38.4,31.5,20.1,0000.0,0005.39,0003.22,0002.79
2022-07-14 09:29:00,,0828.5,5.01,0.00,29.7,28.2,00.0,38.4,31.5,20.1,0000.0,0005.20,0003.22,0002.80
2022-07-14 09:30:00,,0828.5,5.00,0.00,29.7,28.3,00.0,38.4,31.6,19.8,0000.0,0005.27,0003.22,0002.80
2022-07-14 09:31:00,,0828.5,5.00,0.00,29.7,28.4,00.0,38.5,31.6,19.5,0000.0,0005.06,0003.19,0002.78
2022-07-14 09:32:00,,0828.4,5.01,0.00,29.7,28.5,00.0,38.5,31.7,19.2,0000.0,0004.82,0003.16,0002.77
2022-07-14 09:33:00,,0828.4,5.00,0.00,29.8,28.6,00.0,38.5,31.7,19.1,0000.0,0004.56,0003.14,0002.74
2022-07-14 09:34:00,,0828.5,5.00,0.00,29.8,28.7,00.0,38.5,31.7,19.0,0000.0,0004.60,0003.13,0002.69
2022-07-14 09:35:00,,0828.5,5.00,0.00,29.8,28.7,00.0,38.5,31.7,19.0,0000.0,0004.38,0003.10,0002.66
2022-07-14 09:36:00,,0828.5,5.01,0.00,29.8,27.9,00.0,38.4,31.6,19.7,0000.0,0004.28,0003.11,0002.64
2022-07-14 09:37:00,,0828.5,5.00,0.00,29.7,27.1,00.0,38.4,31.5,19.7,0000.0,0004.93,0003.09,0002.64
2022-07-14 09:38:00,,0828.5,4.99,0.00,29.7,27.0,00.0,38.4,31.4,19.5,0000.0,0005.49,0003.05,0002.62
2022-07-14 09:39:00,,0828.5,5.01,0.00,29.6,27.0,00.0,38.3,31.3,19.4,0000.0,0005.50,0003.04,0002.61
2022-07-14 09:40:00,,0828.4,5.01,0.00,29.5,27.2,00.0,38.3,31.3,19.3,0000.0,0005.55,0003.04,0002.57
2022-07-14 09:41:00,,0828.4,4.99,0.00,29.5,27.4,00.0,38.3,31.3,19.3,0000.0,0005.57,0003.04,0002.55
2022-07-14 09:42:00,,0828.5,5.00,0.00,29.5,27.6,00.0,38.3,31.3,19.3,0000.0,0005.65,0003.06,0002.55
2022-07-14 09:43:00,,0828.4,4.99,0.00,29.5,27.7,00.0,38.3,31.3,19.3,0000.0,0005.76,0003.10,0002.55
2022-07-14 09:44:00,,0828.4,5.00,0.00,29.5,27.9,00.0,38.3,31.4,19.2,0000.0,0005.69,0003.11,0002.54
2022-07-14 09:45:00,,0828.4,5.02,0.00,29.6,28.1,00.0,38.3,31.4,19.0,0000.0,0005.54,0003.07,0002.52
2022-07-14 09:46:00,,0828.3,4.99,0.00,29.6,28.2,00.0,38.3,31.5,18.9,0000.0,0005.53,0003.05,0002.50
2022-07-14 09:47:00,,0828.3,5.00,0.00,29.6,28.3,00.0,38.4,31.5,18.8,0000.0,0005.52,0003.00,0002.44
2022-07-14 09:48:00,,0828.4,5.01,0.00,29.6,28.4,00.0,38.4,31.5,19.3,0000.0,0004.73,0002.95,0002.41
2022-07-14 09:49:00,,0828.4,5.00,0.00,29.7,28.5,00.0,38.4,31.6,19.5,0000.0,0004.43,0002.99,0002.39
2022-07-14 09:50:00,,0828.4,5.00,0.00,29.7,28.6,00.0,38.4,31.6,19.3,0000.0,0004.53,0002.99,0002.37
2022-07-14 09:51:00,,0828.4,5.00,0.00,29.7,28.7,00.0,38.4,31.7,19.3,0000.0,0004.45,0002.94,0002.35
2022-07-14 09:52:00,,0828.4,5.00,0.00,29.8,28.8,00.0,38.5,31.7,19.5,0000.0,0004.41,0002.89,0002.32
2022-07-14 09:53:00,,0828.5,5.00,0.00,29.8,28.8,00.0,38.5,31.7,19.5,0000.0,0004.34,0002.85,0002.31
2022-07-14 09:54:00,,0828.5,5.00,0.00,29.8,28.1,00.0,38.4,31.7,19.6,0000.0,0004.22,0002.82,0002.30
2022-07-14 09:55:00,,0828.4,5.01,0.00,29.7,27.3,00.0,38.4,31.5,19.8,0000.0,0005.19,0002.80,0002.28
2022-07-14 09:56:00,,0828.4,5.00,0.00,29.7,27.1,00.0,38.3,31.4,19.9,0000.0,0006.39,0002.81,0002.27
2022-07-14 09:57:00,,0828.4,5.00,0.00,29.6,27.1,00.0,38.3,31.3,20.0,0000.0,0006.91,0002.82,0002.28
2022-07-14 09:58:00,,0828.4,5.00,0.00,29.5,27.2,00.0,38.3,31.2,20.0,0000.0,0006.85,0002.82,0002.30
2022-07-14 09:59:00,,0828.4,5.00,0.00,29.5,27.4,00.0,38.3,31.2,20.0,0000.0,0006.84,0002.81,0002.30
